Other Public Products
Issued by NWS Grand Forks, ND

Home | Current Version | Previous Version | Text Only | Print | Product List | Glossary Off
Versions: 1 2 3 4 5 6 7 8 9 10 11 12 13 14 15 16 17 18 19 20 21 22 23 24 25 26 27 28 29 30 31 32 33 34 35 36 37 38 39 40 41 42 43 44 45 46 47 48 49 50

000
FPUS83 KFGF 302131
OPUFGF
PRAIRIE TO PINES WEATHER ROUNDUP
NATIONAL WEATHER SERVICE EASTERN NORTH DAKOTA/GRAND FORKS ND
400 PM CDT TUE AUG 30 2016

 **SATELLITE DATA USED TO AUGMENT SKY COVER AT AUTOMATED STATIONS**
 *****  WEATHER ACROSS EASTERN NORTH DAKOTA  *****

CITY           SKY/WX    TMP DP  RH WIND       PRES   REMARKS
GRAND FORKS    MOSUNNY   80  52  37 NW6       30.20F
GRAND FORKS AF SUNNY     79  52  38 N6        30.21F
GRAND CITY NWS   N/A     79 N/A N/A NW5         N/A
BUXTON           N/A     82  53  37 N3          N/A
DEVILS LAKE    SUNNY     77  50  38 VRB3      30.24F
FARGO          SUNNY     81  50  33 NE8       30.20F
WAHPETON ARPT  CLEAR     79  45  29 NE8       30.20F
$$

 *****  WEATHER ACROSS CENTRAL AND WESTERN NORTH DAKOTA  *****

CITY           SKY/WX    TMP DP  RH WIND       PRES   REMARKS
JAMESTOWN      SUNNY     81  51  35 E7        30.22F
BISMARCK       MOSUNNY   84  47  27 S10       30.19F
MINOT          CLOUDY    82  44  26 SE10      30.19F
MINOT AFB      CLOUDY    83  43  24 SE12      30.17F
GARRISON         N/A     82  46  28 S12       30.18F
WILLISTON      MOSUNNY   85  50  29 SE12G22   30.14F
DICKINSON      PTSUNNY   80  55  42 SE18      30.15F
HETTINGER      MOSUNNY   83  61  47 SE14      30.20F
$$

 *****  OTHER OBSERVATIONS NORTHEAST NORTH DAKOTA  *****

CITY           SKY/WX    TMP DP  RH WIND       PRES   REMARKS
WALHALLA       FAIR      77  73  88 N7        30.22S
LANGDON        FAIR      79  50  36 N8        30.23F
CAVALIER       FAIR      75  50  41 NW5       30.21S
GRAFTON        FAIR      79  52  38 N7        30.22S
CANDO          FAIR      81  50  34 S5        30.24F
FORT TOTTEN      N/A     78  54  42 N5        29.95S
ROLLA            N/A     75  46  35 CALM      30.25S
RUGBY          FAIR      81  48  32 E5        30.21F
 ***** THE ABOVE OBSERVATIONS ARE NON NWS ARE NOT QUALITY
        CONTROLLED AND MAY MIS-REPORT RAIN FOR SNOW...
$$

 *****  OTHER OBSERVATIONS SOUTHEAST NORTH DAKOTA *****

CITY           SKY/WX    TMP DP  RH WIND       PRES   REMARKS
COOPERSTOWN    NOT AVBL
VALLEY CITY    FAIR      77  55  47 NE7       30.24F
OAKES            N/A    N/A N/A N/A MISG        N/A
GWINNER        FAIR      81  52  36 NE6       30.21F
SHEYENNE NWR     N/A     81  55  40 E6        29.95S
BUFFALO          N/A     81  45  27 NE3         N/A
WYNDMERE         N/A     81  55  41 N5          N/A
 ***** THE ABOVE OBSERVATIONS ARE NON NWS ARE NOT QUALITY
       CONTROLLED AND MAY MIS-REPORT RAIN FOR SNOW...
$$

  *****  WEATHER ACROSS NORTHERN MINNESOTA  *****

CITY           SKY/WX    TMP DP  RH WIND       PRES   REMARKS
FLAG ISLAND    SUNNY     72  46  40 NW5       30.18S
WARROAD        SUNNY     73  55  53 W8        30.20S
ROSEAU         SUNNY     75  52  43 W7        30.20S
HALLOCK        SUNNY     77  45  31 NW8       30.20S
THF RVR FALLS  SUNNY     76  50  40 W9        30.22F
HALSTAD          N/A     79  55  44 N5          N/A
FOSSTON        SUNNY     77  52  41 NW8       30.22S
BAUDETTE       SUNNY     73  52  47 NW10      30.19F
WASKISH        SUNNY     73  55  53 W7        30.19F
CROOKSTON      SUNNY     77  50  38 N7        30.21F
$$
  *****  WEATHER ACROSS CENTRAL AND WEST MINNESOTA  *****

CITY           SKY/WX    TMP DP  RH WIND       PRES   REMARKS
BEMIDJI        SUNNY     73  51  45 NW7       30.21S
PARK RAPIDS    NOT AVBL
WADENA         SUNNY     75  54  46 NW3       30.20F
DETROIT LAKES  SUNNY     73  52  46 N5        30.23F
MOORHEAD       SUNNY     79  48  34 N5        30.21F
FERGUS FALLS   SUNNY     79  54  41 N3        30.20F
ELBOW LAKE     FAIR      77  52  41 E6        30.21S
MORRIS MN      SUNNY     82  52  34 CALM      30.19F
STAPLES        SUNNY     77  50  38 N6        30.20S
WHEATON        SUNNY     82  54  36 NE3       30.21F
$$
  *****  WEATHER ELSEWHERE ACROSS MINNESOTA  *****

CITY           SKY/WX    TMP DP  RH WIND       PRES   REMARKS
DULUTH         SUNNY     75  51  43 NW12G17   30.16F
INTRNTL FALLS  SUNNY     72  45  37 NW13      30.17F
ELY            SUNNY     70  43  37 NW9       30.16S
CLOQUET        SUNNY     73  46  38 W8        30.16F
BRAINERD       SUNNY     76  51  41 N6        30.19F
HIBBING        SUNNY     72  50  45 NW10      30.17F
ALEXANDRIA     SUNNY     78  51  38 N7        30.22F
SAINT CLOUD    SUNNY     77  53  43 NW8       30.18F
MINNEAPOLIS    MOSUNNY   81  55  40 N8        30.15F
$$

  *****  WEATHER ACROSS SOUTH DAKOTA  *****

CITY           SKY/WX    TMP DP  RH WIND       PRES   REMARKS
SIOUX FALLS    CLOUDY    82  70  66 NE13      30.18F
BROOKINGS      SUNNY     79  61  53 E6        30.20F
WATERTOWN      SUNNY     81  55  40 E8        30.21F
HURON          MOSUNNY   85  66  53 E10       30.16F
SISSETON         N/A     81  51  35 E7        30.19F
ABERDEEN       SUNNY     84  55  36 NE10      30.18F
MITCHELL       PTSUNNY   88  66  48 N5        30.16F HX  90
PIERRE         SUNNY     89  65  44 SE10      30.12F HX  91
MOBRIDGE       MOSUNNY   88  56  33 E13       30.15F
RAPID CITY     SUNNY     85  60  42 SE12      30.20F
$$

  *****  SOME WEATHER IN NEARBY STATES *****

CITY           SKY/WX    TMP DP  RH WIND       PRES   REMARKS
GLASGOW MT     SUNNY     86  55  34 SE10      30.06F
GREAT FALLS MT CLOUDY    88  45  22 NE6       30.07F
CHEYENNE WY    CLOUDY    71  51  49 SE9       30.35F
SCOTTSBLUFF NE SUNNY     85  54  34 E8        30.23F
OMAHA NE       CLOUDY    80  68  66 N8        30.14F
DES MOINES IA  CLOUDY    83  69  62 N7        30.11F
DAVENPORT IA   PTSUNNY   84  71  65 W6        30.09F
CHICAGO IL     PTSUNNY   84  68  58 VRB6      30.06F
EAU CLAIRE WI  MOSUNNY   78  62  57 N9        30.12S
LA CROSSE WI   PTSUNNY   82  67  60 NW9       30.09F
$$

  *****  SOME NATIONAL WEATHER *****

CITY           SKY/WX    TMP DP  RH WIND       PRES   REMARKS
LA GUARDIA NY  MOSUNNY   84  60  44 S9        30.05F
RALEIGH NC     MOSUNNY   90  64  42 NE10      30.02F HX  91
ATLANTA GA     PTSUNNY   87  67  51 E16       30.02F HX  90
NEW ORLEANS LA MOSUNNY   95  73  48 E7        29.89F HX 104
OKLAHOMA CITY  PTSUNNY   92  63  38 E7        30.04F HX  93
ALBUQUERQUE NM MOSUNNY   79  48  33 E9G21     30.24F
SALT LAKE CITY PTSUNNY   97  24   7 W9        30.06F HX  90
LOS ANGELES CA MOSUNNY   78  64  61 W15       29.83F
BOISE ID       CLOUDY    87  37  17 W9        29.91F
SEATTLE WA     PTSUNNY   68  51  54 SW10      30.01F
$$

*** WEATHER ACROSS MANITOBA...SASKATCHEWAN AND ONTARIO ***
                ***ONTARIO***

CITY           SKY/WX    TMP DP  RH WIND       PRES   REMARKS
GERALDTON      CLOUDY    66  50  55 NW8       30.05F
THUNDER BAY    MOSUNNY   75  46  35 N12G18    30.07S
SIOUX LOOKOUT  MOSUNNY   70  52  52 NW13G20   30.14F
TORONTO        PTSUNNY   86  64  48 W16       30.03F
BIG TROUT LK   CLOUDY    54  52  94 NW12G20   30.04R
PICKLE LAKE    PTSUNNY   64  52  63 NW10G21   30.08S
DRYDEN         SUNNY     70  46  43 NW7G17    30.16S
KENORA         MOSUNNY   70  45  40 NW12      30.19F
$$
                *** MANITOBA***

CITY           SKY/WX    TMP DP  RH WIND       PRES   REMARKS
BRANDON        PTSUNNY   75  48  38 CALM      30.23F
DAUPHIN        SUNNY     72  41  33 SW3       30.23S
ISLAND LAKE    CLOUDY    59  54  82 NW8       30.17R
PILOT MOUND      N/A     75  48  38 SW3         N/A
THE PAS        CLOUDY    63  52  67 NW5       30.26R
THOMPSON       LGT RAIN  55  48  76 N9        30.26R
WINNIPEG       MOSUNNY   75  43  31 NW12G20   30.21S
LYNN LAKE      CLOUDY    57  48  72 MISG      30.29R
CHURCHILL      CLOUDY    50  46  87 N18G24    30.23
GILLAM         CLOUDY    55  48  76 N15       30.20R
$$
                ***SASKATCHEWAN***

CITY           SKY/WX    TMP DP  RH WIND       PRES   REMARKS
ESTEVAN        PTSUNNY   82  46  28 SE15      30.17F
KINDERSLEY     MOSUNNY   77  50  38 E15G24    30.14F
LLOYDMINSTER   PTSUNNY   68  48  49 SE16G24   30.20F
PRINCE ALBERT  PTSUNNY   66  43  42 VRB2      30.26F
REGINA         MOSUNNY   84  48  28 E16       30.16F
YORKTON        SUNNY     70  48  46 N6        30.23F   C1F1C2F2C3F3C4F4C5F5C6F6C7F7C8F8C9F9CaFaCbFbCcFcCdFdCe!



USA.gov is the U.S. government's official web portal to all federal, state and local government web resources and services.